Regional Weather Roundup
Issued by NWS Huntsville, AL

Home | Current Version | Previous Version | Text Only | Print | Product List | Glossary On
Versions: 1 2 3 4 5 6 7 8 9 10 11 12 13 14 15 16 17 18 19 20 21 22 23 24 25 26 27 28 29 30 31 32 33 34 35 36 37 38 39 40 41 42 43 44 45 46 47 48 49 50
000
ASUS44 KHUN 251510
RWRHUN

WEATHER ROUNDUP FOR THE TENNESSEE VALLEY
NATIONAL WEATHER SERVICE HUNTSVILLE AL
1000 AM CDT FRI JUL 25 2014

ALZ001>004-251600-
NORTHWEST ALABAMA

CITY           SKY/WX    TMP DP  RH WIND       PRES   REMARKS
SHOALS AIRPORT MOSUNNY   78  66  66 CALM      30.08R
SHOALS TVA RES   N/A     75 N/A N/A MISG        N/A
$$

ALZ005>007-016-251600-
NORTH CENTRAL ALABAMA

CITY           SKY/WX    TMP DP  RH WIND       PRES   REMARKS
DECATUR AP     SUNNY     79  68  69 CALM      30.07R
HUNTSVILLE AP  MOSUNNY   79  67  66 E3        30.06S
HUN NWS/UAH      N/A     79  64  60 W1          N/A
MERIDIANVILLE  SUNNY     77  61  57 SE5       30.07S
REDSTONE ARSN  MOSUNNY   79  64  61 CALM      30.07S
VINEMONT AP    FAIR      77  69  76 S5        30.08F
$$

ALZ008>010-251600-
NORTHEAST ALABAMA

CITY           SKY/WX    TMP DP  RH WIND       PRES   REMARKS
ALBERTVILLE    SUNNY     77  72  83 CALM      30.07S
FORT PAYNE     SUNNY     77  63  61 NE3       30.07S
SCOTTSBORO AP  SUNNY     75  66  73 CALM      30.07F
SCOTTSBORO HCN   N/A     73 N/A N/A MISG        N/A
VALLEY HEAD      N/A     73 N/A N/A MISG        N/A
$$

TNZ076-096-097-251600-
SOUTHEASTERN MIDDLE TENNESSEE

CITY           SKY/WX    TMP DP  RH WIND       PRES   REMARKS
FAYETTEVILLE   SUNNY     75  61  60 VRB7      30.08F
TULLAHOMA      SUNNY     75  57  53 E3        30.11R
WINCHESTER     SUNNY     79  61  53 S3        30.08F
$$

...SURROUNDING SITES...

CITY           SKY/WX    TMP DP  RH WIND       PRES   REMARKS
ATLANTA        MOSUNNY   80  70  71 CALM      30.07S
ANNISTON       SUNNY     79  70  74 SE3       30.06F
BIRMINGHAM     MOSUNNY   82  65  56 CALM      30.07F
CHATTANOOGA    MOSUNNY   76  64  66 VRB3      30.07F
CORINTH        FAIR      73  64  73 NW3       30.07R
DALTON         MOSUNNY   70  68  94 N3        30.08F
GADSDEN          N/A    N/A N/A N/A MISG        N/A
GOLDEN TRNGL   SUNNY     79  64  61 CALM      30.07S
HALEYVILLE     FAIR      78  68  71 VRB5      30.10R
JACKSON TN     MOSUNNY   73  65  75 CALM      30.07F
LEWISBURG      FAIR      76  60  57 E6        30.08R
MEMPHIS        MOSUNNY   78  61  55 CALM      30.07S
MURFREESBORO   FAIR      75  60  59 CALM      30.08R
NASHVILLE      PTSUNNY   77  59  53 CALM      30.09F
ROME           SUNNY     77  67  71 NE5       30.06F
SAVANNAH       SUNNY     75  72  88 CALM      30.07S
TUPELO         MOSUNNY   77  65  66 CALM      30.05F
TUSCALOOSA     SUNNY     83  68  60 CALM      30.05S
$$

...GULF COAST WEATHER...

CITY           SKY/WX    TMP DP  RH WIND       PRES   REMARKS
GULFPORT       SUNNY     89  75  63 NW7       30.03R HX  99
PASCAGOULA     SUNNY     87  76  69 VRB5      30.04R HX  97
MOBILE         MOSUNNY   84  76  76 CALM      30.05R HX  93
GULF SHORES    PTSUNNY   85  76  74 W8        30.04R HX  93
PENSACOLA        N/A     85  76  74 SW6       30.03S HX  94
DESTIN         SUNNY     86  77  74 S5        30.04S HX  97
PANAMA CITY    MOSUNNY   86  77  74 SW10      30.06S HX  97
APPALACHICOLA  PTSUNNY   84  74  71 SW13      30.07R HX  91
$$



USA.gov is the U.S. government's official web portal to all federal, state and local government web resources and services.